| time (UTC) | temp F | wind direction | speed knots | gust knots | rain 1hr in | rain 24hr in | rain mn in | humidity % | barometer mb |
| 20260506192116 | 69 | 239 | 3.5 | 2.6 | 0.00 | 0.10 | 0.01 | 78 | 1007.7 |
| 20260506191617 | 69 | 246 | 2.6 | 6.1 | 0.00 | 0.10 | 0.01 | 79 | 1007.7 |
| 20260506191113 | 69 | 210 | 2.6 | 7.0 | 0.00 | 0.10 | 0.01 | 79 | 1007.8 |
| 20260506190614 | 69 | 210 | 4.3 | 3.5 | 0.00 | 0.10 | 0.01 | 79 | 1007.9 |
| 20260506190115 | 69 | 174 | 2.6 | 4.3 | 0.00 | 0.10 | 0.01 | 78 | 1008.0 |
| 20260506185835 | 70 | 204 | 3.5 | 3.5 | 0.01 | 0.10 | 0.01 | 73 | 1008.0 |
| 20260506185611 | 69 | 243 | 1.7 | 1.7 | 0.00 | 0.10 | 0.01 | 76 | 1008.1 |
| 20260506185519 | 69 | 248 | 3.5 | 0.9 | 0.00 | 0.10 | 0.01 | 75 | 1008.1 |
| 20260506185112 | 69 | 248 | 3.5 | 0.9 | 0.00 | 0.10 | 0.01 | 75 | 1008.1 |
| 20260506184613 | 69 | 201 | 3.5 | 6.1 | 0.01 | 0.10 | 0.01 | 75 | 1008.0 |
| 20260506184110 | 69 | 259 | 4.3 | 2.6 | 0.01 | 0.10 | 0.01 | 74 | 1007.9 |
| 20260506183611 | 70 | 204 | 3.5 | 3.5 | 0.01 | 0.10 | 0.01 | 73 | 1008.0 |
| 20260506182640 | 71 | 271 | 3.5 | 6.1 | 0.01 | 0.10 | 0.01 | 71 | 1008.2 |
| 20260506182630 | 71 | 203 | 3.5 | 3.5 | 0.01 | 0.10 | 0.01 | 72 | 1008.2 |
| 20260506182622 | 71 | 180 | 3.5 | 4.3 | 0.01 | 0.10 | 0.01 | 73 | 1008.3 |
| 20260506182608 | 70 | 262 | 7.0 | 4.3 | 0.01 | 0.10 | 0.01 | 71 | 1008.1 |
| 20260506182109 | 70 | 194 | 4.3 | 3.5 | 0.01 | 0.10 | 0.01 | 71 | 1008.2 |
| 20260506181610 | 71 | 248 | 4.3 | 2.6 | 0.01 | 0.10 | 0.01 | 71 | 1008.1 |
| 20260506181106 | 71 | 314 | 2.6 | 4.3 | 0.01 | 0.10 | 0.01 | 71 | 1008.2 |
| 20260506180607 | 71 | 271 | 3.5 | 6.1 | 0.01 | 0.10 | 0.01 | 71 | 1008.2 |
| 20260506180108 | 71 | 203 | 3.5 | 3.5 | 0.01 | 0.10 | 0.01 | 72 | 1008.2 |
| 20260506175604 | 71 | 180 | 3.5 | 4.3 | 0.01 | 0.10 | 0.01 | 73 | 1008.3 |
| 20260506175436 | 71 | 205 | 2.6 | 0.9 | 0.00 | 0.10 | 0.01 | 76 | 1008.8 |
| 20260506175424 | 71 | 270 | 0.9 | 1.7 | 0.00 | 0.10 | 0.01 | 77 | 1008.7 |
| 20260506175104 | 71 | 305 | 2.6 | 1.7 | 0.01 | 0.10 | 0.01 | 74 | 1008.5 |
| 20260506174605 | 71 | 152 | 2.6 | 2.6 | 0.00 | 0.10 | 0.01 | 75 | 1008.6 |
| 20260506174103 | 71 | 242 | 1.7 | 0.9 | 0.00 | 0.10 | 0.01 | 75 | 1008.7 |
| 20260506173604 | 71 | 188 | 2.6 | 0.9 | 0.00 | 0.10 | 0.01 | 76 | 1008.7 |
| 20260506173104 | 71 | 205 | 2.6 | 0.9 | 0.00 | 0.10 | 0.01 | 76 | 1008.8 |
| 20260506172601 | 71 | 270 | 0.9 | 1.7 | 0.00 | 0.10 | 0.01 | 77 | 1008.7 |
| 20260506172238 | 71 | 136 | 0.0 | 0.0 | 0.00 | 0.10 | 0.01 | 72 | 1009.0 |
| 20260506172228 | 71 | 221 | 0.9 | 0.0 | 0.00 | 0.10 | 0.01 | 72 | 1009.1 |
| 20260506172102 | 71 | 179 | 2.6 | 0.9 | 0.00 | 0.10 | 0.01 | 77 | 1008.7 |
| 20260506171603 | 71 | 177 | 1.7 | 0.0 | 0.00 | 0.10 | 0.01 | 77 | 1008.9 |
| 20260506171059 | 71 | 156 | 1.7 | 0.9 | 0.00 | 0.10 | 0.01 | 74 | 1008.9 |
| 20260506170600 | 71 | 176 | 1.7 | 0.0 | 0.00 | 0.10 | 0.01 | 73 | 1009.0 |
| 20260506165558 | 71 | 221 | 0.9 | 0.0 | 0.00 | 0.10 | 0.01 | 72 | 1009.1 |
| 20260506165059 | 71 | 142 | 1.7 | 1.7 | 0.00 | 0.10 | 0.00 | 71 | 1009.4 |
| 20260506165030 | 70 | 188 | 0.0 | 0.9 | 0.00 | 0.10 | 0.00 | 74 | 1010.0 |
| 20260506164056 | 70 | 218 | 2.6 | 3.5 | 0.00 | 0.10 | 0.00 | 74 | 1009.6 |
| 20260506163557 | 70 | 285 | 0.9 | 1.7 | 0.00 | 0.10 | 0.00 | 73 | 1010.0 |
| 20260506163058 | 70 | 195 | 1.7 | 1.7 | 0.00 | 0.10 | 0.00 | 74 | 1009.9 |
| 20260506162651 | 70 | 249 | 1.7 | 0.9 | 0.00 | 0.10 | 0.00 | 73 | 1010.0 |
| 20260506162555 | 70 | 188 | 0.0 | 0.9 | 0.00 | 0.10 | 0.00 | 74 | 1010.0 |
| 20260506162056 | 70 | 249 | 1.7 | 0.9 | 0.00 | 0.10 | 0.00 | 73 | 1010.0 |
| 20260506161837 | 71 | 200 | 1.7 | 0.9 | 0.00 | 0.10 | 0.00 | 70 | 1010.1 |
| 20260506161830 | 71 | 235 | 3.5 | 4.3 | 0.00 | 0.10 | 0.00 | 70 | 1010.0 |
| 20260506161825 | 71 | 159 | 2.6 | 0.9 | 0.00 | 0.10 | 0.00 | 69 | 1010.0 |
| 20260506161557 | 70 | 219 | 2.6 | 1.7 | 0.00 | 0.10 | 0.00 | 73 | 1010.0 |
| 20260506161053 | 70 | 210 | 3.5 | 2.6 | 0.00 | 0.10 | 0.00 | 72 | 1010.0 |
| 20260506160554 | 70 | 249 | 0.9 | 3.5 | 0.00 | 0.10 | 0.00 | 72 | 1010.0 |
| 20260506160055 | 71 | 200 | 1.7 | 0.9 | 0.00 | 0.10 | 0.00 | 70 | 1010.1 |
| 20260506155552 | 71 | 235 | 3.5 | 4.3 | 0.00 | 0.10 | 0.00 | 70 | 1010.0 |
| 20260506155052 | 71 | 159 | 2.6 | 0.9 | 0.00 | 0.10 | 0.00 | 69 | 1010.0 |
| 20260506154633 | 72 | 235 | 3.5 | 1.7 | 0.00 | 0.10 | 0.00 | 68 | 1010.1 |
| 20260506154553 | 72 | 132 | 1.7 | 0.0 | 0.00 | 0.10 | 0.00 | 68 | 1010.1 |
| 20260506154050 | 72 | 203 | 2.6 | 1.7 | 0.00 | 0.10 | 0.00 | 68 | 1010.1 |
| 20260506153551 | 72 | 70 | 0.9 | 0.9 | 0.00 | 0.10 | 0.00 | 67 | 1010.0 |
| 20260506153051 | 72 | 177 | 1.7 | 1.7 | 0.00 | 0.10 | 0.00 | 67 | 1009.9 |
| 20260506152932 | 71 | 203 | 2.6 | 1.7 | 0.00 | 0.10 | 0.00 | 68 | 1010.0 |
| 20260506152548 | 72 | 235 | 3.5 | 1.7 | 0.00 | 0.10 | 0.00 | 68 | 1010.1 |
| 20260506152414 | 71 | 160 | 3.5 | 0.9 | 0.00 | 0.10 | 0.00 | 68 | 1010.1 |
| 20260506152049 | 71 | 203 | 2.6 | 1.7 | 0.00 | 0.10 | 0.00 | 68 | 1010.0 |
| 20260506151856 | 71 | 233 | 3.5 | 1.7 | 0.00 | 0.10 | 0.00 | 67 | 1010.2 |
| 20260506151550 | 71 | 160 | 3.5 | 0.9 | 0.00 | 0.10 | 0.00 | 68 | 1010.1 |
| 20260506151436 | 72 | 256 | 2.6 | 1.7 | 0.00 | 0.10 | 0.00 | 66 | 1010.1 |
| 20260506151420 | 73 | 256 | 2.6 | 3.5 | 0.00 | 0.10 | 0.00 | 66 | 1010.1 |
| 20260506151140 | 71 | 233 | 3.5 | 1.7 | 0.00 | 0.10 | 0.00 | 67 | 1010.2 |
| 20260506151047 | 71 | 233 | 3.5 | 1.7 | 0.00 | 0.10 | 0.00 | 67 | 1010.2 |
| 20260506150633 | 72 | 135 | 4.3 | 1.7 | 0.00 | 0.10 | 0.00 | 66 | 1010.2 |
| 20260506150548 | 72 | 65 | 1.7 | 0.9 | 0.00 | 0.10 | 0.00 | 67 | 1010.2 |
| 20260506150208 | 72 | 256 | 2.6 | 1.7 | 0.00 | 0.10 | 0.00 | 66 | 1010.1 |
| 20260506150049 | 72 | 135 | 4.3 | 1.7 | 0.00 | 0.10 | 0.00 | 66 | 1010.2 |
| 20260506145624 | 73 | 218 | 3.5 | 1.7 | 0.00 | 0.10 | 0.00 | 66 | 1010.1 |
| 20260506145545 | 72 | 256 | 2.6 | 1.7 | 0.00 | 0.10 | 0.00 | 66 | 1010.1 |
| 20260506145258 | 73 | 256 | 2.6 | 3.5 | 0.00 | 0.10 | 0.00 | 66 | 1010.1 |
| 20260506145046 | 73 | 218 | 3.5 | 1.7 | 0.00 | 0.10 | 0.00 | 66 | 1010.1 |
| 20260506144547 | 73 | 256 | 2.6 | 3.5 | 0.00 | 0.10 | 0.00 | 66 | 1010.1 |
| 20260506144259 | 73 | 177 | 2.6 | 2.6 | 0.00 | 0.10 | 0.00 | 65 | 1010.1 |
| 20260506144232 | 72 | 225 | 4.3 | 3.5 | 0.00 | 0.10 | 0.00 | 65 | 1010.1 |
| 20260506144224 | 73 | 177 | 2.6 | 2.6 | 0.00 | 0.10 | 0.00 | 65 | 1010.1 |
| 20260506144217 | 73 | 269 | 5.2 | 3.5 | 0.00 | 0.10 | 0.00 | 64 | 1010.0 |
| 20260506144044 | 73 | 225 | 5.2 | 2.6 | 0.00 | 0.10 | 0.00 | 65 | 1010.1 |
| 20260506143545 | 73 | 211 | 3.5 | 5.2 | 0.00 | 0.10 | 0.00 | 66 | 1010.1 |
| 20260506143046 | 73 | 179 | 2.6 | 2.6 | 0.00 | 0.10 | 0.00 | 66 | 1010.2 |
| 20260506142543 | 73 | 210 | 1.7 | 2.6 | 0.00 | 0.10 | 0.00 | 65 | 1010.2 |
| 20260506142044 | 72 | 225 | 4.3 | 3.5 | 0.00 | 0.10 | 0.00 | 65 | 1010.1 |
| 20260506141644 | 73 | 177 | 2.6 | 2.6 | 0.00 | 0.10 | 0.00 | 65 | 1010.1 |
| 20260506141545 | 73 | 177 | 2.6 | 2.6 | 0.00 | 0.10 | 0.00 | 65 | 1010.1 |
| 20260506141042 | 73 | 269 | 5.2 | 3.5 | 0.00 | 0.10 | 0.00 | 64 | 1010.0 |
| 20260506141026 | 73 | 248 | 2.6 | 2.6 | 0.00 | 0.10 | 0.00 | 65 | 1010.3 |
| 20260506141018 | 73 | 214 | 2.6 | 0.0 | 0.00 | 0.10 | 0.00 | 65 | 1010.3 |
| 20260506140524 | 73 | 233 | 2.6 | 1.7 | 0.00 | 0.10 | 0.00 | 64 | 1010.1 |
| 20260506140025 | 74 | 233 | 4.3 | 3.5 | 0.00 | 0.10 | 0.00 | 64 | 1010.1 |
| 20260506135521 | 74 | 110 | 3.5 | 0.0 | 0.00 | 0.10 | 0.00 | 64 | 1010.1 |
| 20260506135022 | 74 | 221 | 2.6 | 3.5 | 0.00 | 0.10 | 0.00 | 64 | 1010.1 |
| 20260506134523 | 73 | 248 | 2.6 | 2.6 | 0.00 | 0.10 | 0.00 | 65 | 1010.3 |
| 20260506134019 | 73 | 214 | 2.6 | 0.0 | 0.00 | 0.10 | 0.00 | 65 | 1010.3 |
| 20260506133520 | 73 | 198 | 4.3 | 0.9 | 0.00 | 0.10 | 0.00 | 65 | 1010.3 |
| 20260506133022 | 73 | 288 | 3.5 | 3.5 | 0.00 | 0.10 | 0.00 | 66 | 1010.4 |
| 20260506132518 | 72 | 238 | 3.5 | 3.5 | 0.00 | 0.10 | 0.00 | 66 | 1010.5 |
| 20260506132019 | 72 | 188 | 4.3 | 1.7 | 0.00 | 0.10 | 0.00 | 67 | 1010.6 |
| 20260506131520 | 71 | 210 | 4.3 | 1.7 | 0.00 | 0.10 | 0.00 | 69 | 1010.7 |
| 20260506131017 | 70 | 184 | 5.2 | 2.6 | 0.00 | 0.10 | 0.00 | 69 | 1010.5 |
| 20260506130615 | 68 | 203 | 2.6 | 2.6 | 0.00 | 0.10 | 0.00 | 75 | 1010.5 |
| 20260506130556 | 70 | 238 | 4.3 | 1.7 | 0.00 | 0.10 | 0.00 | 70 | 1010.5 |
| 20260506130518 | 70 | 238 | 4.3 | 1.7 | 0.00 | 0.10 | 0.00 | 70 | 1010.5 |
| 20260506130019 | 69 | 222 | 4.3 | 4.3 | 0.00 | 0.10 | 0.00 | 72 | 1010.5 |
| 20260506125516 | 69 | 184 | 2.6 | 5.2 | 0.00 | 0.10 | 0.00 | 73 | 1010.6 |
| 20260506125322 | 68 | 193 | 2.6 | 6.1 | 0.00 | 0.10 | 0.00 | 74 | 1010.6 |
| 20260506125017 | 68 | 193 | 2.6 | 6.1 | 0.00 | 0.10 | 0.00 | 74 | 1010.6 |
| 20260506124518 | 68 | 238 | 3.5 | 5.2 | 0.00 | 0.10 | 0.00 | 75 | 1010.5 |
| 20260506124015 | 68 | 122 | 3.5 | 4.3 | 0.00 | 0.10 | 0.00 | 75 | 1010.5 |
| 20260506123516 | 68 | 203 | 2.6 | 2.6 | 0.00 | 0.10 | 0.00 | 75 | 1010.5 |
| 20260506123427 | 67 | 269 | 3.5 | 2.6 | 0.00 | 0.10 | 0.00 | 77 | 1010.7 |
| 20260506123419 | 67 | 207 | 2.6 | 3.5 | 0.00 | 0.10 | 0.00 | 76 | 1010.6 |
| 20260506123415 | 67 | 231 | 3.5 | 2.6 | 0.00 | 0.10 | 0.00 | 75 | 1010.5 |
| 20260506123017 | 68 | 194 | 4.3 | 4.3 | 0.00 | 0.10 | 0.00 | 75 | 1010.5 |
| 20260506122514 | 68 | 304 | 4.3 | 2.6 | 0.00 | 0.10 | 0.00 | 75 | 1010.5 |
| 20260506122014 | 67 | 211 | 4.3 | 2.6 | 0.00 | 0.10 | 0.00 | 76 | 1010.6 |
| 20260506121515 | 67 | 269 | 3.5 | 2.6 | 0.00 | 0.10 | 0.00 | 77 | 1010.7 |
| 20260506121012 | 67 | 207 | 2.6 | 3.5 | 0.00 | 0.10 | 0.00 | 76 | 1010.6 |
| 20260506120513 | 67 | 231 | 3.5 | 2.6 | 0.00 | 0.10 | 0.00 | 75 | 1010.5 |
| 20260506120227 | 68 | 225 | 3.5 | 3.5 | 0.00 | 0.10 | 0.00 | 75 | 1010.7 |
| 20260506120223 | 68 | 211 | 1.7 | 2.6 | 0.00 | 0.10 | 0.00 | 76 | 1010.8 |
| 20260506120014 | 68 | 276 | 5.2 | 3.5 | 0.00 | 0.10 | 0.00 | 75 | 1010.6 |
| 20260506115511 | 68 | 207 | 3.5 | 1.7 | 0.00 | 0.10 | 0.00 | 74 | 1010.6 |
| 20260506115012 | 68 | 229 | 3.5 | 2.6 | 0.00 | 0.10 | 0.00 | 74 | 1010.7 |
| 20260506114513 | 68 | 225 | 3.5 | 3.5 | 0.00 | 0.10 | 0.00 | 75 | 1010.7 |
| 20260506114010 | 68 | 211 | 1.7 | 2.6 | 0.00 | 0.10 | 0.00 | 76 | 1010.8 |
| 20260506113511 | 67 | 222 | 3.5 | 2.6 | 0.00 | 0.10 | 0.00 | 77 | 1010.8 |
| 20260506113029 | 67 | 160 | 3.5 | 4.3 | 0.00 | 0.10 | 0.00 | 78 | 1010.8 |
| 20260506113012 | 67 | 245 | 3.5 | 2.6 | 0.00 | 0.10 | 0.00 | 78 | 1010.8 |
| 20260506112548 | 67 | 207 | 3.5 | 3.5 | 0.00 | 0.10 | 0.00 | 78 | 1010.9 |
| 20260506112510 | 67 | 207 | 3.5 | 3.5 | 0.00 | 0.10 | 0.00 | 78 | 1010.9 |
| 20260506112011 | 67 | 269 | 4.3 | 6.1 | 0.00 | 0.10 | 0.00 | 78 | 1010.9 |
| 20260506111512 | 67 | 160 | 3.5 | 4.3 | 0.00 | 0.10 | 0.00 | 78 | 1010.8 |
| 20260506111008 | 67 | 242 | 2.6 | 2.6 | 0.00 | 0.10 | 0.00 | 80 | 1010.8 |
| 20260506110509 | 66 | 231 | 2.6 | 4.3 | 0.00 | 0.10 | 0.00 | 82 | 1010.8 |
| 20260506110010 | 65 | 181 | 2.6 | 2.6 | 0.00 | 0.10 | 0.00 | 84 | 1010.8 |
| 20260506105827 | 62 | 250 | 2.6 | 2.6 | 0.00 | 0.10 | 0.00 | 89 | 1010.8 |
| 20260506105818 | 62 | 158 | 3.5 | 0.9 | 0.00 | 0.10 | 0.00 | 89 | 1010.8 |
| 20260506105009 | 64 | 212 | 2.6 | 4.3 | 0.00 | 0.10 | 0.00 | 87 | 1010.7 |
| 20260506104510 | 63 | 259 | 2.6 | 3.5 | 0.00 | 0.10 | 0.00 | 88 | 1010.7 |
| 20260506104007 | 62 | 238 | 2.6 | 3.5 | 0.00 | 0.10 | 0.00 | 89 | 1010.8 |
| 20260506103508 | 62 | 250 | 2.6 | 2.6 | 0.00 | 0.10 | 0.00 | 89 | 1010.8 |
| 20260506103009 | 62 | 158 | 3.5 | 0.9 | 0.00 | 0.10 | 0.00 | 89 | 1010.8 |
| 20260506102619 | 62 | 240 | 3.5 | 3.5 | 0.00 | 0.10 | 0.00 | 89 | 1010.5 |
| 20260506102612 | 62 | 201 | 2.6 | 1.7 | 0.00 | 0.10 | 0.00 | 89 | 1010.6 |
| 20260506102008 | 62 | 188 | 2.6 | 4.3 | 0.00 | 0.10 | 0.00 | 89 | 1010.7 |
| 20260506101509 | 62 | 235 | 3.5 | 3.5 | 0.00 | 0.10 | 0.00 | 89 | 1010.6 |
| 20260506101006 | 62 | 231 | 2.6 | 3.5 | 0.00 | 0.10 | 0.00 | 89 | 1010.6 |
| 20260506100507 | 62 | 257 | 3.5 | 0.0 | 0.00 | 0.10 | 0.00 | 89 | 1010.6 |
| 20260506100008 | 62 | 240 | 3.5 | 3.5 | 0.00 | 0.10 | 0.00 | 89 | 1010.5 |
| 20260506095505 | 62 | 201 | 2.6 | 1.7 | 0.00 | 0.10 | 0.00 | 89 | 1010.6 |
| 20260506095412 | 62 | 203 | 2.6 | 3.5 | 0.00 | 0.10 | 0.00 | 89 | 1010.6 |
| 20260506095002 | 62 | 245 | 2.6 | 5.2 | 0.00 | 0.10 | 0.00 | 89 | 1010.5 |
| 20260506094504 | 62 | 221 | 3.5 | 5.2 | 0.00 | 0.10 | 0.00 | 89 | 1010.5 |
| 20260506094000 | 62 | 217 | 2.6 | 5.2 | 0.00 | 0.10 | 0.00 | 89 | 1010.6 |
| 20260506093501 | 62 | 252 | 1.7 | 3.5 | 0.00 | 0.10 | 0.00 | 89 | 1010.5 |
| 20260506093002 | 62 | 205 | 2.6 | 1.7 | 0.00 | 0.10 | 0.00 | 89 | 1010.6 |
| 20260506092459 | 62 | 203 | 2.6 | 3.5 | 0.00 | 0.10 | 0.00 | 89 | 1010.6 |
| 20260506092224 | 62 | 214 | 2.6 | 2.6 | 0.00 | 0.10 | 0.00 | 89 | 1010.8 |
| 20260506092213 | 62 | 208 | 3.5 | 1.7 | 0.00 | 0.10 | 0.00 | 88 | 1010.9 |
| 20260506092000 | 62 | 233 | 1.7 | 5.2 | 0.00 | 0.10 | 0.00 | 89 | 1010.6 |
| 20260506091501 | 62 | 208 | 1.7 | 2.6 | 0.00 | 0.10 | 0.00 | 89 | 1010.7 |
| 20260506090958 | 62 | 253 | 2.6 | 2.6 | 0.00 | 0.10 | 0.00 | 89 | 1010.8 |
| 20260506090459 | 62 | 204 | 3.5 | 4.3 | 0.00 | 0.10 | 0.00 | 89 | 1010.8 |
| 20260506090000 | 62 | 214 | 2.6 | 2.6 | 0.00 | 0.10 | 0.00 | 89 | 1010.8 |
| 20260506085457 | 62 | 208 | 3.5 | 1.7 | 0.00 | 0.10 | 0.00 | 88 | 1010.9 |
| 20260506085019 | 62 | 194 | 2.6 | 3.5 | 0.00 | 0.10 | 0.00 | 87 | 1010.9 |
| 20260506085013 | 62 | 309 | 2.6 | 1.7 | 0.00 | 0.10 | 0.00 | 87 | 1010.9 |
| 20260506084958 | 62 | 301 | 2.6 | 0.9 | 0.00 | 0.10 | 0.00 | 88 | 1010.9 |
| 20260506084459 | 62 | 255 | 2.6 | 4.3 | 0.00 | 0.10 | 0.00 | 88 | 1010.8 |
| 20260506083956 | 62 | 215 | 2.6 | 3.5 | 0.00 | 0.10 | 0.00 | 88 | 1010.9 |
| 20260506083457 | 62 | 233 | 1.7 | 4.3 | 0.00 | 0.10 | 0.00 | 87 | 1010.9 |
| 20260506082957 | 62 | 276 | 3.5 | 2.6 | 0.00 | 0.10 | 0.00 | 87 | 1010.9 |
| 20260506082454 | 62 | 194 | 2.6 | 3.5 | 0.00 | 0.10 | 0.00 | 87 | 1010.9 |
| 20260506081955 | 62 | 309 | 2.6 | 1.7 | 0.00 | 0.10 | 0.00 | 87 | 1010.9 |
| 20260506081823 | 63 | 203 | 2.6 | 0.9 | 0.00 | 0.10 | 0.00 | 86 | 1011.0 |
| 20260506081813 | 63 | 287 | 2.6 | 2.6 | 0.00 | 0.10 | 0.00 | 86 | 1011.0 |
| 20260506081456 | 62 | 181 | 4.3 | 0.0 | 0.00 | 0.10 | 0.00 | 87 | 1010.9 |
| 20260506080953 | 63 | 218 | 3.5 | 3.5 | 0.00 | 0.10 | 0.00 | 87 | 1011.0 |
| 20260506080454 | 63 | 193 | 4.3 | 3.5 | 0.00 | 0.10 | 0.00 | 86 | 1011.0 |
| 20260506080120 | 63 | 203 | 2.6 | 0.9 | 0.00 | 0.10 | 0.00 | 86 | 1011.0 |
| 20260506073452 | 63 | 205 | 2.6 | 3.5 | 0.00 | 0.10 | 0.00 | 85 | 1011.2 |
| 20260506072953 | 63 | 252 | 2.6 | 4.3 | 0.00 | 0.10 | 0.00 | 85 | 1011.2 |
| 20260506072450 | 63 | 170 | 2.6 | 3.5 | 0.00 | 0.10 | 0.00 | 85 | 1011.2 |
| 20260506071951 | 63 | 263 | 3.5 | 2.6 | 0.00 | 0.10 | 0.00 | 85 | 1011.3 |
| 20260506071452 | 63 | 226 | 3.5 | 0.9 | 0.00 | 0.10 | 0.00 | 85 | 1011.3 |
| 20260506070949 | 63 | 287 | 3.5 | 2.6 | 0.00 | 0.10 | 0.00 | 84 | 1011.3 |
| 20260506070450 | 63 | 236 | 2.6 | 3.5 | 0.00 | 0.10 | 0.00 | 84 | 1011.3 |
| 20260506062446 | 64 | 200 | 3.5 | 4.3 | 0.00 | 0.10 | 0.00 | 83 | 1011.2 |
| 20260506061947 | 64 | 204 | 3.5 | 0.9 | 0.00 | 0.10 | 0.00 | 83 | 1011.1 |
| 20260506061448 | 64 | 229 | 4.3 | 3.5 | 0.00 | 0.10 | 0.00 | 82 | 1011.2 |
| 20260506061021 | 64 | 188 | 2.6 | 7.0 | 0.00 | 0.10 | 0.00 | 82 | 1011.5 |
| 20260506061006 | 64 | 270 | 2.6 | 3.5 | 0.02 | 0.10 | 0.00 | 81 | 1011.5 |
| 20260506060946 | 64 | 278 | 2.6 | 3.5 | 0.00 | 0.10 | 0.00 | 82 | 1011.2 |
| 20260506060447 | 64 | 203 | 3.5 | 2.6 | 0.00 | 0.10 | 0.00 | 82 | 1011.2 |
| 20260506050941 | 65 | 186 | 2.6 | 6.1 | 0.02 | 0.10 | 0.00 | 79 | 1011.8 |
| 20260506050725 | 65 | 184 | 3.5 | 1.7 | 0.02 | 0.10 | 0.00 | 79 | 1011.8 |
| 20260506050621 | 65 | 218 | 2.6 | 3.5 | 0.02 | 0.10 | 0.00 | 78 | 1011.9 |
| 20260506050614 | 65 | 246 | 1.7 | 2.6 | 0.07 | 0.07 | 0.10 | 78 | 1011.8 |
| 20260506050442 | 65 | 184 | 3.5 | 1.7 | 0.02 | 0.10 | 0.00 | 79 | 1011.8 |
| 20260506045047 | 65 | 218 | 2.6 | 3.5 | 0.02 | 0.10 | 0.00 | 78 | 1011.9 |
| 20260506044941 | 65 | 218 | 2.6 | 3.5 | 0.02 | 0.10 | 0.00 | 78 | 1011.9 |
| 20260506044442 | 65 | 246 | 1.7 | 2.6 | 0.07 | 0.07 | 0.10 | 78 | 1011.8 |
| 20260506043940 | 65 | 208 | 1.7 | 3.5 | 0.07 | 0.07 | 0.10 | 77 | 1011.9 |
| 20260506043441 | 65 | 300 | 0.9 | 2.6 | 0.07 | 0.07 | 0.10 | 77 | 1011.9 |
| 20260506043420 | 66 | 238 | 2.6 | 3.5 | 0.07 | 0.07 | 0.10 | 75 | 1011.8 |
| 20260506043409 | 66 | 193 | 2.6 | 2.6 | 0.07 | 0.07 | 0.10 | 75 | 1011.8 |
| 20260506043404 | 66 | 188 | 2.6 | 3.5 | 0.07 | 0.07 | 0.10 | 75 | 1011.8 |
| 20260506043032 | 65 | 177 | 4.3 | 5.2 | 0.07 | 0.07 | 0.10 | 77 | 1011.8 |
| 20260506042942 | 65 | 177 | 4.3 | 5.2 | 0.07 | 0.07 | 0.10 | 77 | 1011.8 |
| 20260506042439 | 65 | 214 | 4.3 | 3.5 | 0.07 | 0.07 | 0.10 | 76 | 1011.8 |
| 20260506042012 | 66 | 208 | 1.7 | 0.9 | 0.07 | 0.07 | 0.10 | 76 | 1011.8 |
| 20260506041939 | 66 | 208 | 1.7 | 0.9 | 0.07 | 0.07 | 0.10 | 76 | 1011.8 |
| 20260506041440 | 66 | 238 | 2.6 | 3.5 | 0.07 | 0.07 | 0.10 | 75 | 1011.8 |
| 20260506040937 | 66 | 193 | 2.6 | 2.6 | 0.07 | 0.07 | 0.10 | 75 | 1011.8 |
| 20260506040438 | 66 | 188 | 2.6 | 3.5 | 0.07 | 0.07 | 0.10 | 75 | 1011.8 |
| 20260506040213 | 67 | 188 | 3.5 | 3.5 | 0.00 | 0.07 | 0.01 | 73 | 1011.9 |
| 20260506035939 | 66 | 211 | 2.6 | 4.3 | 0.07 | 0.07 | 0.10 | 74 | 1011.8 |
| 20260506035436 | 66 | 208 | 5.2 | 3.5 | 0.07 | 0.07 | 0.10 | 74 | 1011.8 |
| 20260506034937 | 66 | 153 | 2.6 | 2.6 | 0.07 | 0.07 | 0.08 | 74 | 1011.8 |
| 20260506034438 | 66 | 240 | 1.7 | 1.7 | 0.00 | 0.07 | 0.01 | 74 | 1011.9 |
| 20260506033935 | 67 | 188 | 3.5 | 3.5 | 0.00 | 0.07 | 0.01 | 73 | 1011.9 |
| 20260506033601 | 67 | 218 | 3.5 | 4.3 | 0.00 | 0.07 | 0.01 | 73 | 1011.9 |
| 20260506033435 | 67 | 218 | 3.5 | 4.3 | 0.00 | 0.07 | 0.01 | 73 | 1011.9 |
| 20260506033014 | 67 | 228 | 4.3 | 2.6 | 0.00 | 0.07 | 0.01 | 72 | 1011.9 |
| 20260506033009 | 67 | 256 | 4.3 | 4.3 | 0.00 | 0.07 | 0.01 | 72 | 1011.9 |
| 20260506033002 | 67 | 271 | 3.5 | 4.3 | 0.00 | 0.07 | 0.01 | 72 | 1011.9 |
| 20260506032935 | 67 | 176 | 2.6 | 1.7 | 0.00 | 0.07 | 0.01 | 73 | 1011.9 |
| 20260506032432 | 67 | 186 | 5.2 | 6.1 | 0.00 | 0.07 | 0.01 | 73 | 1011.7 |
| 20260506031933 | 67 | 218 | 4.3 | 4.3 | 0.00 | 0.07 | 0.01 | 73 | 1011.8 |
| 20260506031540 | 67 | 239 | 3.5 | 1.7 | 0.00 | 0.07 | 0.01 | 72 | 1011.9 |
| 20260506031434 | 67 | 239 | 3.5 | 1.7 | 0.00 | 0.07 | 0.01 | 72 | 1011.9 |
| 20260506031234 | 67 | 228 | 4.3 | 2.6 | 0.00 | 0.07 | 0.01 | 72 | 1011.9 |
| 20260506030931 | 67 | 228 | 4.3 | 2.6 | 0.00 | 0.07 | 0.01 | 72 | 1011.9 |
| 20260506030432 | 67 | 256 | 4.3 | 4.3 | 0.00 | 0.07 | 0.01 | 72 | 1011.9 |
| 20260506025933 | 67 | 271 | 3.5 | 4.3 | 0.00 | 0.07 | 0.01 | 72 | 1011.9 |
| 20260506025819 | 68 | 229 | 3.5 | 9.6 | 0.00 | 0.07 | 0.01 | 71 | 1012.0 |
| 20260506025812 | 68 | 255 | 2.6 | 1.7 | 0.00 | 0.07 | 0.01 | 71 | 1012.1 |
| 20260506025806 | 68 | 266 | 2.6 | 2.6 | 0.00 | 0.07 | 0.01 | 70 | 1012.1 |
| 20260506024932 | 68 | 285 | 5.2 | 5.2 | 0.00 | 0.07 | 0.01 | 71 | 1011.9 |
| 20260506024433 | 68 | 239 | 3.5 | 7.8 | 0.00 | 0.07 | 0.01 | 71 | 1012.0 |
| 20260506024129 | 68 | 229 | 3.5 | 9.6 | 0.00 | 0.07 | 0.01 | 71 | 1012.0 |
| 20260506023930 | 68 | 229 | 3.5 | 9.6 | 0.00 | 0.07 | 0.01 | 71 | 1012.0 |
| 20260506023431 | 68 | 255 | 2.6 | 1.7 | 0.00 | 0.07 | 0.01 | 71 | 1012.1 |
| 20260506023220 | 68 | 266 | 2.6 | 2.6 | 0.00 | 0.07 | 0.01 | 70 | 1012.1 |
| 20260506022931 | 68 | 266 | 2.6 | 2.6 | 0.00 | 0.07 | 0.01 | 70 | 1012.1 |
| 20260506022614 | 68 | 207 | 4.3 | 4.3 | 0.00 | 0.07 | 0.01 | 69 | 1012.1 |
| 20260506022606 | 68 | 252 | 5.2 | 7.0 | 0.00 | 0.07 | 0.01 | 69 | 1012.1 |
| 20260506022559 | 68 | 200 | 5.2 | 4.3 | 0.00 | 0.07 | 0.01 | 69 | 1012.1 |
| 20260506022428 | 68 | 226 | 6.1 | 5.2 | 0.00 | 0.07 | 0.01 | 70 | 1012.1 |
| 20260506021929 | 68 | 156 | 5.2 | 3.5 | 0.00 | 0.07 | 0.01 | 70 | 1012.1 |
| 20260506021430 | 68 | 207 | 3.5 | 4.3 | 0.00 | 0.07 | 0.01 | 70 | 1012.2 |
| 20260506020925 | 68 | 204 | 3.5 | 2.6 | 0.00 | 0.07 | 0.01 | 70 | 1012.2 |
| 20260506020426 | 68 | 207 | 4.3 | 4.3 | 0.00 | 0.07 | 0.01 | 69 | 1012.1 |
| 20260506015927 | 68 | 252 | 5.2 | 7.0 | 0.00 | 0.07 | 0.01 | 69 | 1012.1 |
| 20260506015424 | 68 | 200 | 5.2 | 4.3 | 0.00 | 0.07 | 0.01 | 69 | 1012.1 |
| 20260506015409 | 69 | 211 | 2.6 | 3.5 | 0.00 | 0.07 | 0.01 | 67 | 1012.0 |
| 20260506015400 | 69 | 229 | 5.2 | 4.3 | 0.00 | 0.07 | 0.01 | 67 | 1012.0 |
| 20260506014912 | 68 | 228 | 4.3 | 7.0 | 0.00 | 0.07 | 0.01 | 69 | 1012.0 |
| 20260506014413 | 69 | 246 | 4.3 | 3.5 | 0.00 | 0.07 | 0.01 | 68 | 1012.0 |
| 20260506013909 | 69 | 297 | 2.6 | 9.6 | 0.00 | 0.07 | 0.01 | 68 | 1012.0 |
| 20260506013410 | 69 | 222 | 3.5 | 5.2 | 0.00 | 0.07 | 0.01 | 68 | 1012.0 |
| 20260506012911 | 69 | 211 | 2.6 | 3.5 | 0.00 | 0.07 | 0.01 | 67 | 1012.0 |
| 20260506012810 | 69 | 229 | 5.2 | 4.3 | 0.00 | 0.07 | 0.01 | 67 | 1012.0 |
| 20260506012408 | 69 | 229 | 5.2 | 4.3 | 0.00 | 0.07 | 0.01 | 67 | 1012.0 |
| 20260506012215 | 69 | 260 | 5.2 | 7.0 | 0.00 | 0.07 | 0.01 | 64 | 1011.6 |
| 20260506012204 | 70 | 255 | 2.6 | 0.0 | 0.00 | 0.07 | 0.01 | 64 | 1011.6 |
| 20260506011909 | 69 | 218 | 5.2 | 1.7 | 0.00 | 0.07 | 0.01 | 67 | 1011.9 |
| 20260506011410 | 69 | 191 | 5.2 | 3.5 | 0.00 | 0.07 | 0.01 | 66 | 1011.9 |
| 20260506010406 | 69 | 188 | 6.1 | 6.1 | 0.00 | 0.07 | 0.01 | 65 | 1011.6 |
| 20260506005907 | 69 | 260 | 5.2 | 7.0 | 0.00 | 0.07 | 0.01 | 64 | 1011.6 |
| 20260506005404 | 70 | 255 | 2.6 | 0.0 | 0.00 | 0.07 | 0.01 | 64 | 1011.6 |
| 20260506005010 | 70 | 193 | 4.3 | 7.0 | 0.00 | 0.07 | 0.01 | 63 | 1011.4 |
| 20260506005000 | 70 | 195 | 7.0 | 5.2 | 0.00 | 0.07 | 0.01 | 62 | 1011.4 |
| 20260506004905 | 70 | 221 | 4.3 | 0.9 | 0.00 | 0.07 | 0.01 | 63 | 1011.6 |
| 20260506004406 | 70 | 225 | 6.1 | 8.7 | 0.00 | 0.07 | 0.01 | 63 | 1011.4 |
| 20260506003902 | 70 | 193 | 4.3 | 7.0 | 0.00 | 0.07 | 0.01 | 63 | 1011.4 |
| 20260506003403 | 70 | 195 | 7.0 | 5.2 | 0.00 | 0.07 | 0.01 | 62 | 1011.4 |
| 20260506003217 | 70 | 321 | 5.2 | 4.3 | 0.00 | 0.07 | 0.01 | 62 | 1011.3 |
| 20260506003207 | 70 | 190 | 4.3 | 5.2 | 0.00 | 0.07 | 0.01 | 62 | 1011.4 |
| 20260506002904 | 70 | 195 | 2.6 | 6.1 | 0.00 | 0.07 | 0.01 | 62 | 1011.4 |
| 20260506002519 | 70 | 321 | 5.2 | 4.3 | 0.00 | 0.07 | 0.01 | 62 | 1011.3 |
| 20260506002401 | 70 | 321 | 5.2 | 4.3 | 0.00 | 0.07 | 0.01 | 62 | 1011.3 |
| 20260506001901 | 70 | 190 | 4.3 | 5.2 | 0.00 | 0.07 | 0.01 | 62 | 1011.4 |
| 20260506001758 | 71 | 255 | 2.6 | 4.3 | 0.00 | 0.07 | 0.01 | 60 | 1011.2 |
| 20260506001402 | 70 | 226 | 4.3 | 1.7 | 0.00 | 0.07 | 0.01 | 61 | 1011.3 |
| 20260506000857 | 70 | 200 | 3.5 | 5.2 | 0.00 | 0.07 | 0.01 | 61 | 1011.3 |
| 20260506000358 | 71 | 200 | 2.6 | 4.3 | 0.00 | 0.07 | 0.01 | 61 | 1011.3 |
| 20260505235857 | 71 | 243 | 4.3 | 3.5 | 0.00 | 0.07 | 0.01 | 60 | 1011.3 |
| 20260505235353 | 71 | 255 | 4.3 | 1.7 | 0.00 | 0.07 | 0.01 | 60 | 1011.2 |
| 20260505234854 | 71 | 255 | 2.6 | 4.3 | 0.00 | 0.07 | 0.01 | 60 | 1011.2 |
| 20260505234613 | 73 | 183 | 3.5 | 2.6 | 0.00 | 0.07 | 0.01 | 57 | 1010.8 |
| 20260505234604 | 73 | 239 | 2.6 | 6.1 | 0.00 | 0.07 | 0.01 | 57 | 1010.7 |
| 20260505234355 | 71 | 238 | 3.5 | 8.7 | 0.00 | 0.07 | 0.01 | 59 | 1011.1 |
| 20260505233852 | 72 | 240 | 1.7 | 1.7 | 0.00 | 0.07 | 0.01 | 59 | 1011.1 |
| 20260505233424 | 72 | 293 | 2.6 | 5.2 | 0.00 | 0.07 | 0.01 | 58 | 1011.1 |
| 20260505233353 | 72 | 293 | 2.6 | 5.2 | 0.00 | 0.07 | 0.01 | 58 | 1011.1 |
| 20260505232956 | 72 | 253 | 2.6 | 2.6 | 0.00 | 0.07 | 0.01 | 58 | 1010.9 |
| 20260505232853 | 72 | 253 | 2.6 | 2.6 | 0.00 | 0.07 | 0.01 | 58 | 1010.9 |
| 20260505232350 | 73 | 183 | 3.5 | 2.6 | 0.00 | 0.07 | 0.01 | 57 | 1010.8 |
| 20260505231851 | 73 | 239 | 2.6 | 6.1 | 0.00 | 0.07 | 0.01 | 57 | 1010.7 |
| 20260505231754 | 73 | 197 | 4.3 | 6.1 | 0.00 | 0.07 | 0.01 | 57 | 1010.7 |
| 20260505231352 | 73 | 197 | 4.3 | 6.1 | 0.00 | 0.07 | 0.01 | 57 | 1010.7 |
| 20260505230940 | 73 | 228 | 3.5 | 1.7 | 0.00 | 0.07 | 0.01 | 56 | 1010.8 |
| 20260505230848 | 73 | 228 | 3.5 | 1.7 | 0.00 | 0.07 | 0.01 | 56 | 1010.8 |
| 20260505230349 | 74 | 203 | 5.2 | 7.0 | 0.00 | 0.07 | 0.01 | 56 | 1010.7 |
| 20260505225944 | 74 | 186 | 3.5 | 8.7 | 0.00 | 0.07 | 0.01 | 56 | 1010.6 |
| 20260505225850 | 74 | 186 | 3.5 | 8.7 | 0.00 | 0.07 | 0.01 | 56 | 1010.6 |
| 20260505225348 | 74 | 221 | 3.5 | 3.5 | 0.00 | 0.07 | 0.01 | 55 | 1010.6 |
| 20260505224848 | 74 | 242 | 1.7 | 7.0 | 0.00 | 0.07 | 0.01 | 55 | 1010.6 |
| 20260505224349 | 75 | 284 | 4.3 | 4.3 | 0.00 | 0.07 | 0.01 | 54 | 1010.4 |
| 20260505223846 | 75 | 229 | 4.3 | 2.6 | 0.00 | 0.07 | 0.01 | 54 | 1010.5 |
| 20260505223824 | 77 | 226 | 5.2 | 3.5 | 0.00 | 0.07 | 0.01 | 51 | 1010.3 |
| 20260505223346 | 75 | 218 | 7.0 | 8.7 | 0.00 | 0.07 | 0.01 | 53 | 1010.5 |
| 20260505222949 | 76 | 208 | 4.3 | 0.9 | 0.00 | 0.07 | 0.01 | 52 | 1010.4 |
| 20260505222847 | 76 | 208 | 4.3 | 0.9 | 0.00 | 0.07 | 0.01 | 52 | 1010.4 |
| 20260505222344 | 76 | 188 | 2.6 | 1.7 | 0.00 | 0.07 | 0.01 | 52 | 1010.4 |
| 20260505221844 | 77 | 226 | 5.2 | 3.5 | 0.00 | 0.07 | 0.01 | 51 | 1010.3 |
| 20260505221345 | 77 | 274 | 0.0 | 6.1 | 0.00 | 0.07 | 0.01 | 51 | 1010.2 |
| 20260505221008 | 78 | 204 | 2.6 | 1.7 | 0.00 | 0.07 | 0.01 | 48 | 1009.9 |
| 20260505221000 | 79 | 203 | 2.6 | 5.2 | 0.00 | 0.07 | 0.01 | 48 | 1009.9 |
| 20260505220954 | 79 | 217 | 2.6 | 4.3 | 0.00 | 0.07 | 0.01 | 48 | 1009.9 |
| 20260505220841 | 77 | 188 | 4.3 | 2.6 | 0.00 | 0.07 | 0.01 | 50 | 1010.2 |
| 20260505220342 | 77 | 215 | 1.7 | 5.2 | 0.00 | 0.07 | 0.01 | 49 | 1010.1 |
| 20260505215843 | 78 | 86 | 4.3 | 3.5 | 0.00 | 0.07 | 0.01 | 49 | 1010.1 |
| 20260505215339 | 78 | 211 | 2.6 | 7.8 | 0.00 | 0.07 | 0.01 | 49 | 1010.1 |
| 20260505214840 | 78 | 204 | 2.6 | 1.7 | 0.00 | 0.07 | 0.01 | 48 | 1009.9 |
| 20260505214341 | 79 | 203 | 2.6 | 5.2 | 0.00 | 0.07 | 0.01 | 48 | 1009.9 |
| 20260505213837 | 79 | 217 | 2.6 | 4.3 | 0.00 | 0.07 | 0.01 | 48 | 1009.9 |
| 20260505213811 | 80 | 240 | 6.1 | 6.1 | 0.00 | 0.07 | 0.01 | 48 | 1009.7 |
| 20260505213802 | 80 | 263 | 4.3 | 5.2 | 0.00 | 0.07 | 0.01 | 47 | 1009.7 |
| 20260505213754 | 80 | 287 | 5.2 | 0.9 | 0.00 | 0.07 | 0.01 | 47 | 1009.6 |
| 20260505213338 | 79 | 249 | 4.3 | 2.6 | 0.00 | 0.07 | 0.01 | 48 | 1009.8 |
| 20260505212839 | 79 | 195 | 4.3 | 8.7 | 0.00 | 0.07 | 0.01 | 48 | 1009.7 |
| 20260505212335 | 80 | 238 | 1.7 | 1.7 | 0.00 | 0.07 | 0.01 | 48 | 1009.7 |
| 20260505211836 | 80 | 240 | 6.1 | 6.1 | 0.00 | 0.07 | 0.01 | 48 | 1009.7 |
| 20260505211336 | 80 | 263 | 4.3 | 5.2 | 0.00 | 0.07 | 0.01 | 47 | 1009.7 |
| 20260505210833 | 80 | 287 | 5.2 | 0.9 | 0.00 | 0.07 | 0.01 | 47 | 1009.6 |
| 20260505210333 | 80 | 219 | 5.2 | 3.5 | 0.00 | 0.07 | 0.01 | 47 | 1009.6 |
| 20260505205834 | 80 | 219 | 3.5 | 4.3 | 0.00 | 0.07 | 0.01 | 48 | 1009.5 |
| 20260505205330 | 80 | 166 | 2.6 | 5.2 | 0.00 | 0.07 | 0.01 | 48 | 1009.4 |
| 20260505204831 | 81 | 243 | 3.5 | 7.0 | 0.00 | 0.07 | 0.01 | 48 | 1009.4 |
| 20260505204331 | 81 | 177 | 2.6 | 6.1 | 0.00 | 0.07 | 0.01 | 48 | 1009.5 |
| 20260505203828 | 81 | 218 | 3.5 | 3.5 | 0.00 | 0.07 | 0.01 | 48 | 1009.5 |
| 20260505203426 | 81 | 238 | 1.7 | 3.5 | 0.00 | 0.07 | 0.01 | 49 | 1009.5 |
| 20260505203328 | 81 | 238 | 1.7 | 3.5 | 0.00 | 0.07 | 0.01 | 49 | 1009.5 |
| 20260505203143 | 81 | 188 | 1.7 | 0.0 | 0.00 | 0.07 | 0.01 | 51 | 1009.7 |
| 20260505202829 | 81 | 169 | 1.7 | 7.0 | 0.00 | 0.07 | 0.01 | 50 | 1009.5 |
| 20260505202325 | 81 | 145 | 1.7 | 0.0 | 0.00 | 0.07 | 0.01 | 50 | 1009.5 |
| 20260505201826 | 81 | 242 | 0.9 | 3.5 | 0.00 | 0.07 | 0.01 | 50 | 1009.5 |
| 20260505200823 | 81 | 200 | 1.7 | 5.2 | 0.00 | 0.07 | 0.01 | 51 | 1009.6 |
| 20260505200324 | 81 | 188 | 1.7 | 0.0 | 0.00 | 0.07 | 0.01 | 51 | 1009.7 |
| 20260505200206 | 82 | 163 | 2.6 | 0.9 | 0.00 | 0.07 | 0.01 | 50 | 1009.7 |
| 20260505195824 | 81 | 132 | 1.7 | 1.7 | 0.00 | 0.07 | 0.01 | 50 | 1009.7 |
| 20260505194821 | 81 | 221 | 1.7 | 3.5 | 0.00 | 0.07 | 0.01 | 51 | 1009.7 |
| 20260505194359 | 82 | 170 | 2.6 | 2.6 | 0.00 | 0.07 | 0.01 | 50 | 1009.7 |
| 20260505194322 | 82 | 170 | 2.6 | 2.6 | 0.00 | 0.07 | 0.01 | 50 | 1009.7 |
| 20260505193818 | 82 | 163 | 2.6 | 0.9 | 0.00 | 0.07 | 0.01 | 50 | 1009.7 |
| 20260505193319 | 82 | 190 | 0.9 | 1.7 | 0.00 | 0.07 | 0.01 | 50 | 1009.8 |
| 20260505193007 | 83 | 243 | 1.7 | 1.7 | 0.00 | 0.07 | 0.01 | 50 | 1009.9 |
| 20260505192819 | 82 | 238 | 1.7 | 3.5 | 0.00 | 0.07 | 0.01 | 51 | 1009.8 |